Regional Weather Roundup
Issued by NWS

Home | Current Version | Previous Version | Text Only | Print | Product List | Glossary Off
Versions: 1 2 3 4 5 6 7 8 9 10 11 12 13 14 15 16 17 18 19 20 21 22 23 24 25 26 27 28 29 30 31 32 33 34 35 36 37 38 39 40 41 42 43 44 45 46 47 48 49 50

000
ASUS45 KPSR 231300
RWRAZ

PRELIMINARY ARIZONA REGIONAL HOURLY WEATHER ROUNDUP
NATIONAL WEATHER SERVICE PHOENIX AZ
600 AM MST WED APR 23 2014

NOTE: FAIR INDICATES FEW OR NO CLOUDS BELOW 12,000 FEET WITH NO
SIGNIFICANT WEATHER AND/OR OBSTRUCTIONS TO VISIBILITY.

AZZ001>003-036-231400-
NORTHWEST ARIZONA

CITY           SKY/WX    TMP DP  RH WIND       PRES   REMARKS
KINGMAN        CLEAR     47   4  17 CALM      29.86R
$$

AZZ004>008-015-016-018-231400-
NORTH CENTRAL ARIZONA

CITY           SKY/WX    TMP DP  RH WIND       PRES   REMARKS
GRAND CANYON   MOCLDY    26   9  48 CALM      29.90R
WILLIAMS       MOCLDY    39  16  38 S3        29.96R
PRESCOTT       MOCLDY    43  17  35 S8        29.85F
FLAGSTAFF      MOCLDY    38  19  46 VRB3      29.90R
PAGE           MOCLDY    53  21  28 NW10      29.83R
$$

AZZ009>014-017-231400-
NORTHEAST ARIZONA

CITY           SKY/WX    TMP DP  RH WIND       PRES   REMARKS
WINSLOW        NOT AVBL
SAINT JOHNS    CLEAR     43  23  45 SW6       29.90R
WINDOW ROCK    CLEAR     46  26  45 CALM      29.91R
SHOW LOW       CLEAR     45  23  42 S13G18    29.94S
$$

AZZ023-231400-
GREATER PHOENIX AREA

CITY           SKY/WX    TMP DP  RH WIND       PRES   REMARKS
PHOENIX        PTCLDY    71  22  15 W9        29.75R
GLENDALE       PTCLDY    63  23  22 S8        29.77
LUKE AFB       NOT AVBL
DEER VALLEY    CLEAR     63  26  24 S5        29.76R
SCOTTSDALE     CLEAR     66  28  24 CALM      29.78R
MESA-FALCON    MOCLDY    64  30  27 E6        29.77
MESA-GATEWAY   PTCLDY    64  25  22 SW7       29.79R
CHANDLER       PTCLDY    63  28  27 VRB6      29.78
$$

AZZ027-028-231400-
SOUTHWEST MARICOPA COUNTY AND PINAL COUNTY

CITY           SKY/WX    TMP DP  RH WIND       PRES   REMARKS
CASA GRANDE    CLEAR     57  27  30 CALM      29.80R
$$

AZZ503-504-507>509-231400-
SOUTHEAST ARIZONA

CITY           SKY/WX    TMP DP  RH WIND       PRES   REMARKS
TUCSON         CLEAR     63  29  27 SE7       29.86R
DAVIS-MONTHAN  CLEAR     59  28  30 SE6       29.85R
NOGALES        CLEAR     51  26  37 N3        29.91R
SIERRA VISTA   PTCLDY    54  25  32 SW8       29.94R
SAFFORD        CLEAR     60  25  26 SW7       29.83R
$$

AZZ020-021-025-026-031-231400-
SOUTHWEST ARIZONA

CITY           SKY/WX    TMP DP  RH WIND       PRES   REMARKS
YUMA           CLEAR     65  35  33 NE5       29.79R
$$

CAZ031-033-041-043-047-048-061-231400-
SOUTHERN CALIFORNIA

CITY           SKY/WX    TMP DP  RH WIND       PRES   REMARKS
DOWNTOWN L.A.  CLEAR     57  48  72 CALM      29.93R
L.A. AIRPORT   PTCLDY    57  49  74 NE6       29.94R
SAN DIEGO      CLOUDY    60  49  66 E5        29.94F
BURBANK        CLEAR     52  42  69 CALM      29.93R
ONTARIO        PTCLDY    54  47  77 W3        29.92S
RIVERSIDE      CLEAR     52  48  86 CALM      29.93S
PALM SPRINGS   CLEAR     62  45  53 VRB3      29.81R
EL CENTRO NAS  PTCLDY    62  38  40 W13       29.78R
IMPERIAL       CLEAR     61  39  44 SW5       29.78R
BLYTHE         CLEAR     61  10  13 SW6       29.79R
$$

NVZ020-UTZ003-231400-
SOUTHERN NEVADA-UTAH

CITY           SKY/WX    TMP DP  RH WIND       PRES   REMARKS
LAS VEGAS      NOT AVBL
SALT LAKE CITY MOCLDY    41  29  62 NW7       29.97R
$$

NMZ009-TXZ055-231400-
NEW MEXICO-WEST TEXAS

CITY           SKY/WX    TMP DP  RH WIND       PRES   REMARKS
ALBUQUERQUE    MOCLDY    53  28  38 SE6       29.88R
EL PASO        MOCLDY    67  25  20 S7        29.87R
$$


........................KEY........................
SKY/WX - SKY CONDITION/WEATHER
TMP    - TEMPERATURE IN FAHRENHEIT
DP     - DEW POINT IN FAHRENHEIT
RH     - RELATIVE HUMIDITY IN PERCENT
WIND   - DIRECTION AND SPEED IN MILES PER HOUR (MPH)
VRB    - VARIABLE WIND DIRECTION
PRES   - MEAN SEA LEVEL PRESSURE IN INCHES OF MERCURY
         F - FALLING PRESSURE   R - RISING PRESSURE
         S - STEADY PRESSURE
VSB    - VISIBILITY IN MILES
HX     - HEAT INDEX IN FAHRENHEIT
WCI    - WIND CHILL INDEX IN FAHRENHEIT
TC     - TEMPERATURE IN CELSIUS WHICH IS ALSO KNOWN AS
         TEMPERATURE IN CENTIGRADE
AFB    - AIR FORCE BASE
         LUKE AFB IS LUKE AIR FORCE BASE
         DAVIS-MONTHAN IS DAVIS-MONTHAN AIR FORCE BASE
NAS    - NAVAL AIR STATION
         EL CENTRO NAS IS EL CENTRO NAVAL AIR STATION
N/A    - NOT AVAILABLE



USA.gov is the U.S. government's official web portal to all federal, state and local government web resources and services.